Location: Munkebjergskolens Observatorium
(55.3864°N, 10.3987°E)
Time: 23:42:08
(UTC+01:00)

DELTA 1 DEB - Pass Details

Date: 05 December 2023
Orbit: 783 x 826 km, 98.9° (Epoch: 04 March)

Event Time Altitude Azimuth Distance (km) Brightness Sun altitude
Rises 18:42:21 0° 190° (S) 3,290 ? -22.9°
Reaches altitude 10° 18:44:52 10° 200° (SSW) 2,372 ? -23.3°
Maximum altitude 18:49:37 34° 265° (W) 1,302 ? -24.0°
Drops below altitude 10° 18:54:28 10° 330° (NNW) 2,414 ? -24.7°
Sets 18:57:03 0° 340° (NNW) 3,358 ? -25.0°
